This is the latest recevied weather packets stored in our database for station/object AA6HF. If no packets are shown the sender has not sent any weather packets the latest 10 day(s).
| Time | Temp. | Humidity | Pressure | Rain* | Wind** | Luminosity | Snow |
|---|---|---|---|---|---|---|---|
| 1777738845 | 31.67° C | 17% | 1010.4 hPa | 0 mm | - | - | - |
| 1777738545 | 31.11° C | 17% | 1010.4 hPa | 0 mm | - | - | - |
| 1777738245 | 31.11° C | 18% | 1010.4 hPa | 0 mm | - | - | - |
| 1777737945 | 31.11° C | 21% | 1010.4 hPa | 0 mm | - | - | - |
| 1777737645 | 31.11° C | 24% | 1010.4 hPa | 0 mm | - | - | - |
| 1777737345 | 30.56° C | 25% | 1010.4 hPa | 0 mm | - | - | - |
| 1777737045 | 30° C | 27% | 1010.4 hPa | 0 mm | - | - | - |
| 1777736745 | 29.44° C | 28% | 1010.4 hPa | 0 mm | - | - | - |
| 1777736445 | 28.89° C | 30% | 1010.4 hPa | 0 mm | - | - | - |
| 1777736145 | 28.33° C | 30% | 1010.3 hPa | 0 mm | - | - | - |
| 1777735845 | 28.33° C | 30% | 1010.3 hPa | 0 mm | - | - | - |
| 1777735545 | 27.78° C | 30% | 1010.3 hPa | 0 mm | - | - | - |
| 1777735245 | 27.22° C | 31% | 1010.3 hPa | 0 mm | - | - | - |
| 1777734945 | 27.22° C | 31% | 1010.3 hPa | 0 mm | - | - | - |
| 1777734645 | 26.67° C | 32% | 1010.4 hPa | 0 mm | - | - | - |
| 1777734345 | 26.67° C | 32% | 1010.3 hPa | 0 mm | - | - | - |
| 1777734045 | 25.56° C | 35% | 1010.3 hPa | 0 mm | - | - | - |
| 1777733745 | 25° C | 36% | 1010.3 hPa | 0 mm | - | - | - |
| 1777733445 | 23.89° C | 36% | 1010.3 hPa | 0 mm | - | - | - |
| 1777733145 | 23.33° C | 40% | 1010.4 hPa | 0 mm | - | - | - |
| 1777732845 | 22.22° C | 47% | 1010.3 hPa | 0 mm | - | - | - |
| 1777732545 | 21.11° C | 48% | 1010.3 hPa | 0 mm | - | - | - |
| 1777732245 | 20.56° C | 52% | 1010.3 hPa | 0 mm | - | - | - |
| 1777731945 | 19.44° C | 51% | 1010.3 hPa | 0 mm | - | - | - |
| 1777731645 | 18.89° C | 55% | 1010.3 hPa | 0 mm | - | - | - |
* Rain latest hour (hover to see other rain measurements)
** Current wind speed in m/s (hover to see current wind gust speed)